TimeMDT,TemperatureF,Dew PointF,Humidity,Sea Level PressureIn,VisibilityMPH,Wind Direction,Wind SpeedMPH,Gust SpeedMPH,PrecipitationIn,Events,Conditions,WindDirDegrees,DateUTC
12:15 AM,59.0,51.8,77,30.10,10.0,SE,4.6,-,N/A,,Clear,130,2013-06-18 06:15:00
12:35 AM,57.2,50.0,77,30.09,10.0,Calm,Calm,-,N/A,,Clear,0,2013-06-18 06:35:00
12:55 AM,55.4,48.2,77,30.10,10.0,Calm,Calm,-,N/A,,Clear,0,2013-06-18 06:55:00
1:35 AM,55.4,48.2,77,30.09,10.0,Calm,Calm,-,N/A,,Clear,0,2013-06-18 07:35:00
2:15 AM,50.0,46.4,87,30.09,10.0,SSW,3.5,-,N/A,,Clear,200,2013-06-18 08:15:00
2:35 AM,53.6,48.2,82,30.09,10.0,Calm,Calm,-,N/A,,Clear,0,2013-06-18 08:35:00
2:55 AM,51.8,48.2,88,30.09,10.0,Calm,Calm,-,N/A,,Clear,0,2013-06-18 08:55:00
3:15 AM,51.8,46.4,82,30.09,10.0,SSE,3.5,-,N/A,,Clear,150,2013-06-18 09:15:00
3:35 AM,51.8,46.4,82,30.09,10.0,Calm,Calm,-,N/A,,Clear,0,2013-06-18 09:35:00
3:55 AM,51.8,46.4,82,30.09,10.0,Calm,Calm,-,N/A,,Clear,0,2013-06-18 09:55:00
4:15 AM,51.8,46.4,82,30.09,10.0,North,3.5,-,N/A,,Clear,10,2013-06-18 10:15:00
4:35 AM,48.2,46.4,93,30.08,10.0,North,4.6,-,N/A,,Clear,10,2013-06-18 10:35:00
4:55 AM,50.0,46.4,87,30.09,10.0,North,4.6,-,N/A,,Clear,360,2013-06-18 10:55:00
5:15 AM,50.0,46.4,87,30.08,10.0,NNE,4.6,-,N/A,,Clear,20,2013-06-18 11:15:00
5:35 AM,50.0,46.4,87,30.08,10.0,NNE,5.8,-,N/A,,Clear,20,2013-06-18 11:35:00
5:55 AM,50.0,46.4,87,30.08,10.0,North,4.6,-,N/A,,Clear,10,2013-06-18 11:55:00
6:15 AM,51.8,48.2,88,30.07,10.0,NE,4.6,-,N/A,,Clear,40,2013-06-18 12:15:00
6:55 AM,55.4,51.8,88,30.07,10.0,ENE,3.5,-,N/A,,Clear,70,2013-06-18 12:55:00
7:15 AM,57.2,51.8,82,30.07,10.0,East,4.6,-,N/A,,Clear,80,2013-06-18 13:15:00
7:35 AM,59.0,51.8,77,30.07,10.0,East,5.8,-,N/A,,Clear,90,2013-06-18 13:35:00
7:55 AM,60.8,51.8,72,30.07,10.0,ENE,4.6,-,N/A,,Clear,70,2013-06-18 13:55:00
8:15 AM,60.8,51.8,72,30.06,10.0,East,5.8,-,N/A,,Clear,80,2013-06-18 14:15:00
8:35 AM,62.6,51.8,68,30.06,10.0,East,8.1,-,N/A,,Clear,90,2013-06-18 14:35:00
8:55 AM,64.4,53.6,68,30.05,10.0,East,6.9,-,N/A,,Clear,100,2013-06-18 14:55:00
9:15 AM,66.2,53.6,64,30.04,10.0,East,8.1,-,N/A,,Clear,90,2013-06-18 15:15:00
9:35 AM,69.8,55.4,60,30.03,10.0,ESE,9.2,-,N/A,,Clear,110,2013-06-18 15:35:00
10:15 AM,71.6,57.2,60,30.01,10.0,ESE,9.2,-,N/A,,Clear,110,2013-06-18 16:15:00
10:55 AM,75.2,59.0,57,30.01,10.0,East,4.6,-,N/A,,Clear,100,2013-06-18 16:55:00
11:15 AM,73.4,57.2,57,30.01,10.0,ENE,6.9,-,N/A,,Clear,70,2013-06-18 17:15:00
11:35 AM,75.2,57.2,53,30.00,10.0,East,3.5,-,N/A,,Clear,90,2013-06-18 17:35:00
11:55 AM,75.2,57.2,53,29.99,10.0,ESE,11.5,-,N/A,,Clear,120,2013-06-18 17:55:00
12:15 PM,77.0,57.2,50,29.98,10.0,East,10.4,20.7,N/A,,Clear,100,2013-06-18 18:15:00
12:35 PM,78.8,59.0,51,29.98,10.0,East,13.8,18.4,N/A,,Clear,80,2013-06-18 18:35:00
12:55 PM,78.8,59.0,51,29.97,10.0,East,12.7,-,N/A,,Clear,100,2013-06-18 18:55:00
1:15 PM,78.8,57.2,47,29.97,10.0,ESE,13.8,-,N/A,,Clear,110,2013-06-18 19:15:00
1:35 PM,80.6,57.2,45,29.95,10.0,East,10.4,-,N/A,,Clear,100,2013-06-18 19:35:00
1:55 PM,80.6,59.0,48,29.95,10.0,East,16.1,-,N/A,,Clear,100,2013-06-18 19:55:00
2:35 PM,82.4,59.0,45,29.94,10.0,ESE,15.0,-,N/A,,Clear,110,2013-06-18 20:35:00
2:55 PM,82.4,57.2,42,29.93,10.0,ESE,17.3,20.7,N/A,,Clear,120,2013-06-18 20:55:00
3:15 PM,82.4,57.2,42,29.93,10.0,East,17.3,-,N/A,,Clear,100,2013-06-18 21:15:00
3:35 PM,82.4,55.4,39,29.92,10.0,ESE,16.1,21.9,N/A,,Clear,120,2013-06-18 21:35:00
3:55 PM,82.4,55.4,39,29.91,10.0,ESE,13.8,19.6,N/A,,Clear,110,2013-06-18 21:55:00
4:15 PM,82.4,55.4,39,29.91,10.0,ESE,15.0,18.4,N/A,,Clear,120,2013-06-18 22:15:00
4:35 PM,82.4,55.4,39,29.90,10.0,ESE,16.1,19.6,N/A,,Clear,110,2013-06-18 22:35:00
4:55 PM,82.4,55.4,39,29.90,10.0,East,13.8,19.6,N/A,,Clear,100,2013-06-18 22:55:00
5:15 PM,82.4,53.6,37,29.89,10.0,SE,16.1,23.0,N/A,,Clear,130,2013-06-18 23:15:00
5:36 PM,82.4,55.4,39,29.89,10.0,ESE,17.3,-,N/A,,Clear,120,2013-06-18 23:36:00
5:55 PM,82.4,53.6,37,29.89,10.0,SE,16.1,-,N/A,,Clear,130,2013-06-18 23:55:00
6:15 PM,80.6,53.6,39,29.88,10.0,SE,18.4,21.9,N/A,,Clear,130,2013-06-19 00:15:00
6:35 PM,80.6,55.4,42,29.88,10.0,SE,17.3,20.7,N/A,,Clear,140,2013-06-19 00:35:00
6:55 PM,80.6,55.4,42,29.88,10.0,SE,13.8,21.9,N/A,,Clear,140,2013-06-19 00:55:00
7:15 PM,80.6,55.4,42,29.88,10.0,SE,15.0,23.0,N/A,,Clear,130,2013-06-19 01:15:00
7:35 PM,78.8,55.4,44,29.87,10.0,ESE,12.7,-,N/A,,Clear,120,2013-06-19 01:35:00
7:55 PM,78.8,55.4,44,29.86,10.0,ESE,15.0,-,N/A,,Clear,120,2013-06-19 01:55:00
8:15 PM,75.2,55.4,50,29.86,10.0,ESE,12.7,-,N/A,,Clear,120,2013-06-19 02:15:00
8:35 PM,75.2,55.4,50,29.86,10.0,SE,11.5,17.3,N/A,,Clear,130,2013-06-19 02:35:00
8:55 PM,75.2,55.4,50,29.87,10.0,ESE,9.2,-,N/A,,Clear,120,2013-06-19 02:55:00
9:15 PM,75.2,55.4,50,29.87,10.0,ESE,11.5,17.3,N/A,,Clear,120,2013-06-19 03:15:00
9:35 PM,73.4,55.4,53,29.87,10.0,ESE,10.4,-,N/A,,Clear,110,2013-06-19 03:35:00
9:55 PM,69.8,55.4,60,29.87,10.0,East,6.9,-,N/A,,Clear,100,2013-06-19 03:55:00
10:35 PM,69.8,55.4,60,29.85,10.0,East,10.4,-,N/A,,Clear,90,2013-06-19 04:35:00
10:55 PM,69.8,55.4,60,29.84,10.0,East,9.2,-,N/A,,Clear,100,2013-06-19 04:55:00
11:15 PM,71.6,55.4,57,29.84,10.0,ESE,11.5,16.1,N/A,,Clear,110,2013-06-19 05:15:00
11:56 PM,71.6,55.4,57,29.84,10.0,ESE,10.4,-,N/A,,Scattered Clouds,120,2013-06-19 05:56:00